Time,TemperatureF,DewpointF,PressureIn,WindDirection,WindDirectionDegrees,WindSpeedMPH,WindSpeedGustMPH,Humidity,HourlyPrecipIn,Conditions,Clouds,dailyrainin,SoftwareType,DateUTC
2013-07-11 00:01:00,75.6,71.8,29.81,ESE,103,0.0,0.0,88,0.00,,CLR,0.00,VWS V14.01,2013-07-11 04:01:00,
2013-07-11 00:02:00,75.4,71.9,29.81,ESE,103,0.0,0.0,89,0.00,,CLR,0.00,VWS V14.01,2013-07-11 04:02:00,
2013-07-11 00:07:00,74.8,71.7,29.81,ESE,103,0.0,0.0,90,0.00,,CLR,0.00,VWS V14.01,2013-07-11 04:07:00,
2013-07-11 00:12:00,74.5,71.7,29.81,ESE,103,0.0,0.0,91,0.00,,CLR,0.00,VWS V14.01,2013-07-11 04:12:00,
2013-07-11 00:18:00,74.4,71.6,29.80,ESE,103,0.0,0.0,91,0.00,,CLR,0.00,VWS V14.01,2013-07-11 04:18:00,
2013-07-11 00:23:00,74.1,71.6,29.79,East,98,0.0,1.0,92,0.00,,CLR,0.00,VWS V14.01,2013-07-11 04:23:00,
2013-07-11 00:28:00,74.1,71.6,29.79,East,99,0.0,1.0,92,0.00,,CLR,0.00,VWS V14.01,2013-07-11 04:28:00,
2013-07-11 00:33:00,74.2,71.7,29.79,SE,128,0.0,0.0,92,0.00,,CLR,0.00,VWS V14.01,2013-07-11 04:33:00,
2013-07-11 00:38:00,74.0,71.5,29.78,SE,132,0.0,2.0,92,0.00,,CLR,0.00,VWS V14.01,2013-07-11 04:38:00,
2013-07-11 00:43:00,73.7,71.6,29.79,ESE,116,0.0,0.0,93,0.00,,CLR,0.00,VWS V14.01,2013-07-11 04:43:00,
2013-07-11 00:48:00,73.6,71.8,29.78,ESE,108,0.0,1.0,94,0.00,,CLR,0.00,VWS V14.01,2013-07-11 04:48:00,
2013-07-11 00:53:00,73.9,72.1,29.78,SE,136,0.0,2.0,94,0.00,,CLR,0.00,VWS V14.01,2013-07-11 04:53:00,
2013-07-11 00:58:00,74.4,72.2,29.78,SE,145,0.0,1.0,93,0.00,,CLR,0.00,VWS V14.01,2013-07-11 04:58:00,
2013-07-11 01:03:00,75.0,72.5,29.78,SE,131,1.0,3.0,92,0.00,,CLR,0.00,VWS V14.01,2013-07-11 05:03:00,
2013-07-11 01:08:00,75.4,72.6,29.78,SSW,197,1.0,3.0,91,0.00,,CLR,0.00,VWS V14.01,2013-07-11 05:08:00,
2013-07-11 01:13:00,75.6,72.5,29.78,South,179,1.0,4.0,90,0.00,,CLR,0.00,VWS V14.01,2013-07-11 05:13:00,
2013-07-11 01:18:00,75.8,72.7,29.78,SSE,161,1.0,2.0,90,0.00,,CLR,0.00,VWS V14.01,2013-07-11 05:18:00,
2013-07-11 01:23:00,75.7,72.2,29.79,South,170,1.0,4.0,89,0.00,,CLR,0.00,VWS V14.01,2013-07-11 05:23:00,
2013-07-11 01:28:00,75.4,72.3,29.79,SSE,149,1.0,4.0,90,0.00,,CLR,0.00,VWS V14.01,2013-07-11 05:28:00,
2013-07-11 01:33:00,75.1,72.0,29.78,SE,125,1.0,3.0,90,0.00,,CLR,0.00,VWS V14.01,2013-07-11 05:33:00,
2013-07-11 01:38:00,75.0,72.2,29.79,SSE,159,2.0,3.0,91,0.00,,CLR,0.00,VWS V14.01,2013-07-11 05:38:00,
2013-07-11 01:43:00,75.1,72.0,29.79,SW,218,2.0,2.0,90,0.00,,CLR,0.00,VWS V14.01,2013-07-11 05:43:00,
2013-07-11 01:48:00,75.2,72.1,29.79,SSE,161,1.0,3.0,90,0.00,,CLR,0.00,VWS V14.01,2013-07-11 05:48:00,
2013-07-11 01:53:00,75.2,72.1,29.79,South,169,0.0,2.0,90,0.00,,CLR,0.00,VWS V14.01,2013-07-11 05:53:00,
2013-07-11 01:58:00,75.1,72.0,29.79,SSE,149,0.0,1.0,90,0.00,,CLR,0.00,VWS V14.01,2013-07-11 05:58:00,
2013-07-11 02:03:00,74.8,72.0,29.78,SSE,154,2.0,3.0,91,0.00,,CLR,0.00,VWS V14.01,2013-07-11 06:03:00,
2013-07-11 02:09:00,74.8,72.0,29.79,SE,130,1.0,4.0,91,0.00,,CLR,0.00,VWS V14.01,2013-07-11 06:09:00,
2013-07-11 02:14:00,74.8,72.3,29.79,SSE,158,2.0,3.0,92,0.00,,CLR,0.00,VWS V14.01,2013-07-11 06:14:00,
2013-07-11 02:19:00,74.8,72.3,29.78,South,169,1.0,3.0,92,0.00,,CLR,0.00,VWS V14.01,2013-07-11 06:19:00,
2013-07-11 02:24:00,74.9,72.4,29.79,South,188,4.0,5.0,92,0.00,,CLR,0.00,VWS V14.01,2013-07-11 06:24:00,
2013-07-11 02:29:00,74.9,72.1,29.79,WSW,243,2.0,5.0,91,0.00,,CLR,0.00,VWS V14.01,2013-07-11 06:29:00,
2013-07-11 02:34:00,74.9,72.1,29.79,SSW,210,2.0,4.0,91,0.00,,CLR,0.00,VWS V14.01,2013-07-11 06:34:00,
2013-07-11 02:39:00,74.8,72.0,29.79,SSW,207,1.0,4.0,91,0.00,,CLR,0.00,VWS V14.01,2013-07-11 06:39:00,
2013-07-11 02:44:00,74.8,72.0,29.79,SSW,212,0.0,3.0,91,0.00,,CLR,0.00,VWS V14.01,2013-07-11 06:44:00,
2013-07-11 02:49:00,74.7,71.9,29.79,South,170,0.0,3.0,91,0.00,,CLR,0.00,VWS V14.01,2013-07-11 06:49:00,
2013-07-11 02:54:00,74.6,71.8,29.80,SW,232,1.0,3.0,91,0.00,,CLR,0.00,VWS V14.01,2013-07-11 06:54:00,
2013-07-11 02:59:00,74.5,71.4,29.80,WSW,242,1.0,4.0,90,0.00,,CLR,0.00,VWS V14.01,2013-07-11 06:59:00,
2013-07-11 03:04:00,74.4,71.6,29.80,SW,215,1.0,2.0,91,0.00,,BKN090,0.00,VWS V14.01,2013-07-11 07:04:00,
2013-07-11 03:09:00,74.3,71.5,29.80,SW,233,2.0,5.0,91,0.00,,BKN090,0.00,VWS V14.01,2013-07-11 07:09:00,
2013-07-11 03:14:00,74.2,71.7,29.80,WSW,250,2.0,6.0,92,0.00,,BKN090,0.00,VWS V14.01,2013-07-11 07:14:00,
2013-07-11 03:19:00,74.1,71.6,29.80,SSE,162,0.0,3.0,92,0.00,,BKN090,0.00,VWS V14.01,2013-07-11 07:19:00,
2013-07-11 03:24:00,74.0,71.2,29.80,SW,226,1.0,3.0,91,0.00,,BKN090,0.00,VWS V14.01,2013-07-11 07:24:00,
2013-07-11 03:29:00,73.9,71.1,29.79,SW,232,0.0,5.0,91,0.00,,BKN090,0.00,VWS V14.01,2013-07-11 07:29:00,
2013-07-11 03:34:00,73.9,71.1,29.80,WSW,242,3.0,5.0,91,0.00,,BKN090,0.00,VWS V14.01,2013-07-11 07:34:00,
2013-07-11 03:39:00,73.8,71.0,29.80,SW,229,1.0,4.0,91,0.00,,BKN090,0.00,VWS V14.01,2013-07-11 07:39:00,
2013-07-11 03:44:00,73.8,71.0,29.80,SW,219,0.0,4.0,91,0.00,,BKN090,0.00,VWS V14.01,2013-07-11 07:44:00,
2013-07-11 03:49:00,73.7,70.9,29.80,SW,236,1.0,2.0,91,0.00,,BKN090,0.00,VWS V14.01,2013-07-11 07:49:00,
2013-07-11 03:54:00,73.6,71.1,29.80,SW,231,2.0,3.0,92,0.00,,BKN090,0.00,VWS V14.01,2013-07-11 07:54:00,
2013-07-11 03:59:00,73.5,71.0,29.80,SSW,211,2.0,5.0,92,0.00,,BKN090,0.00,VWS V14.01,2013-07-11 07:59:00,
2013-07-11 04:04:00,73.5,71.0,29.80,West,271,2.0,5.0,92,0.00,,BKN095,0.00,VWS V14.01,2013-07-11 08:04:00,
2013-07-11 04:10:00,73.5,71.0,29.80,West,259,0.0,3.0,92,0.00,,BKN095,0.00,VWS V14.01,2013-07-11 08:10:00,
2013-07-11 04:15:00,73.3,70.8,29.80,WSW,239,0.0,4.0,92,0.00,,BKN095,0.00,VWS V14.01,2013-07-11 08:15:00,
2013-07-11 04:20:00,73.2,70.7,29.80,WSW,239,0.0,2.0,92,0.00,,BKN095,0.00,VWS V14.01,2013-07-11 08:20:00,
2013-07-11 04:25:00,73.0,70.5,29.80,WSW,255,0.0,1.0,92,0.00,,BKN095,0.00,VWS V14.01,2013-07-11 08:25:00,
2013-07-11 04:30:00,72.9,70.8,29.80,WNW,300,1.0,1.0,93,0.00,,BKN095,0.00,VWS V14.01,2013-07-11 08:30:00,
2013-07-11 04:35:00,72.7,70.6,29.80,WSW,241,0.0,1.0,93,0.00,,BKN095,0.00,VWS V14.01,2013-07-11 08:35:00,
2013-07-11 04:40:00,72.7,70.6,29.80,West,276,0.0,3.0,93,0.00,,BKN095,0.00,VWS V14.01,2013-07-11 08:40:00,
2013-07-11 04:45:00,72.7,70.6,29.80,WNW,282,1.0,1.0,93,0.00,,BKN095,0.00,VWS V14.01,2013-07-11 08:45:00,
2013-07-11 04:50:00,72.7,70.6,29.80,WSW,250,1.0,2.0,93,0.00,,BKN095,0.00,VWS V14.01,2013-07-11 08:50:00,
2013-07-11 04:55:00,72.6,70.8,29.80,WSW,255,0.0,1.0,94,0.00,,BKN095,0.00,VWS V14.01,2013-07-11 08:55:00,
2013-07-11 05:00:00,72.5,70.7,29.80,West,274,0.0,1.0,94,0.00,,BKN095,0.00,VWS V14.01,2013-07-11 09:00:00,
2013-07-11 05:05:00,72.4,70.6,29.80,WNW,302,1.0,1.0,94,0.00,,FEW090,0.00,VWS V14.01,2013-07-11 09:05:00,
2013-07-11 05:10:00,72.4,70.6,29.80,West,278,0.0,3.0,94,0.00,,FEW090,0.00,VWS V14.01,2013-07-11 09:10:00,
2013-07-11 05:15:00,72.4,70.6,29.80,West,276,0.0,1.0,94,0.00,,FEW090,0.00,VWS V14.01,2013-07-11 09:15:00,
2013-07-11 05:20:00,72.3,70.5,29.81,West,280,0.0,2.0,94,0.00,,FEW090,0.00,VWS V14.01,2013-07-11 09:20:00,
2013-07-11 05:25:00,72.2,70.7,29.81,WNW,294,1.0,5.0,95,0.00,,FEW090,0.00,VWS V14.01,2013-07-11 09:25:00,
2013-07-11 05:30:00,72.2,70.7,29.81,WSW,248,0.0,6.0,95,0.00,,FEW090,0.00,VWS V14.01,2013-07-11 09:30:00,
2013-07-11 05:35:00,72.2,70.7,29.81,West,259,0.0,3.0,95,0.00,,FEW090,0.00,VWS V14.01,2013-07-11 09:35:00,
2013-07-11 05:40:00,72.1,70.6,29.81,NW,307,1.0,3.0,95,0.00,,FEW090,0.00,VWS V14.01,2013-07-11 09:40:00,
2013-07-11 05:45:00,72.0,70.5,29.81,WNW,295,0.0,4.0,95,0.00,,FEW090,0.00,VWS V14.01,2013-07-11 09:45:00,
2013-07-11 05:50:00,71.9,70.4,29.82,WNW,283,0.0,4.0,95,0.00,,FEW090,0.00,VWS V14.01,2013-07-11 09:50:00,
2013-07-11 05:55:00,71.9,70.4,29.81,West,269,1.0,4.0,95,0.00,,FEW090,0.00,VWS V14.01,2013-07-11 09:55:00,
2013-07-11 06:00:00,71.8,70.3,29.82,WNW,282,3.0,3.0,95,0.00,,FEW090,0.00,VWS V14.01,2013-07-11 10:00:00,
2013-07-11 06:05:00,71.8,70.3,29.82,NW,312,2.0,4.0,95,0.00,,-RA,0.00,VWS V14.01,2013-07-11 10:05:00,
2013-07-11 06:10:00,71.7,70.2,29.82,NW,312,2.0,6.0,95,0.00,,-RA,0.00,VWS V14.01,2013-07-11 10:10:00,
2013-07-11 06:15:00,71.6,69.8,29.82,NW,311,0.0,4.0,94,0.00,,-RA,0.00,VWS V14.01,2013-07-11 10:15:00,
2013-07-11 06:20:00,71.6,69.8,29.82,NW,311,2.0,5.0,94,0.00,,-RA,0.00,VWS V14.01,2013-07-11 10:20:00,
2013-07-11 06:25:00,71.6,69.8,29.82,NW,312,2.0,3.0,94,0.00,,-RA,0.00,VWS V14.01,2013-07-11 10:25:00,
2013-07-11 06:30:00,71.5,69.7,29.83,WNW,291,1.0,1.0,94,0.00,,-RA,0.00,VWS V14.01,2013-07-11 10:30:00,
2013-07-11 06:35:00,71.5,69.7,29.83,NW,319,0.0,3.0,94,0.00,,-RA,0.00,VWS V14.01,2013-07-11 10:35:00,
2013-07-11 06:40:00,71.4,69.6,29.83,NW,319,0.0,1.0,94,0.00,,-RA,0.00,VWS V14.01,2013-07-11 10:40:00,
2013-07-11 06:45:00,71.4,69.9,29.83,NW,316,0.0,0.0,95,0.00,,-RA,0.00,VWS V14.01,2013-07-11 10:45:00,
2013-07-11 06:50:00,71.4,69.9,29.83,NW,312,1.0,1.0,95,0.00,,-RA,0.00,VWS V14.01,2013-07-11 10:50:00,
2013-07-11 06:55:00,71.3,69.5,29.84,WNW,288,2.0,2.0,94,0.00,,-RA,0.00,VWS V14.01,2013-07-11 10:55:00,
2013-07-11 07:00:00,71.3,69.5,29.84,NW,311,0.0,2.0,94,0.00,,-RA,0.00,VWS V14.01,2013-07-11 11:00:00,
2013-07-11 07:05:00,71.3,69.5,29.84,West,277,0.0,2.0,94,0.00,,-RA,0.00,VWS V14.01,2013-07-11 11:05:00,
2013-07-11 07:10:00,71.3,69.2,29.84,NW,314,0.0,3.0,93,0.00,,-RA,0.00,VWS V14.01,2013-07-11 11:10:00,
2013-07-11 07:15:00,71.3,69.2,29.84,West,274,0.0,2.0,93,0.00,,-RA,0.00,VWS V14.01,2013-07-11 11:15:00,
2013-07-11 07:20:00,71.3,69.2,29.85,WNW,289,0.0,4.0,93,0.00,,-RA,0.00,VWS V14.01,2013-07-11 11:20:00,
2013-07-11 07:25:00,71.3,68.9,29.85,WNW,289,1.0,6.0,92,0.00,,-RA,0.00,VWS V14.01,2013-07-11 11:25:00,
2013-07-11 07:30:00,71.3,68.5,29.85,WNW,284,2.0,6.0,91,0.00,,-RA,0.00,VWS V14.01,2013-07-11 11:30:00,
2013-07-11 07:35:00,71.4,68.3,29.85,WSW,257,0.0,8.0,90,0.00,,-RA,0.00,VWS V14.01,2013-07-11 11:35:00,
2013-07-11 07:40:00,71.4,68.0,29.85,WNW,297,0.0,5.0,89,0.00,,-RA,0.00,VWS V14.01,2013-07-11 11:40:00,
2013-07-11 07:45:00,71.4,68.0,29.85,NW,305,1.0,5.0,89,0.00,,-RA,0.00,VWS V14.01,2013-07-11 11:45:00,
2013-07-11 07:50:00,71.4,67.7,29.85,WNW,290,0.0,6.0,88,0.00,,-RA,0.00,VWS V14.01,2013-07-11 11:50:00,
2013-07-11 07:55:00,71.4,67.7,29.85,NW,321,2.0,6.0,88,0.00,,-RA,0.00,VWS V14.01,2013-07-11 11:55:00,
2013-07-11 08:00:00,71.5,67.8,29.85,NW,316,2.0,5.0,88,0.00,,-RA,0.00,VWS V14.01,2013-07-11 12:00:00,
2013-07-11 08:05:00,71.5,67.8,29.86,WNW,303,1.0,7.0,88,0.00,,-RA,0.00,VWS V14.01,2013-07-11 12:05:00,
2013-07-11 08:10:00,71.6,67.9,29.86,NNW,328,0.0,6.0,88,0.00,,-RA,0.00,VWS V14.01,2013-07-11 12:10:00,
2013-07-11 08:15:00,71.6,67.9,29.86,NW,326,4.0,7.0,88,0.00,,-RA,0.00,VWS V14.01,2013-07-11 12:15:00,
2013-07-11 08:20:00,71.7,67.6,29.86,NNW,333,2.0,8.0,87,0.00,,-RA,0.00,VWS V14.01,2013-07-11 12:20:00,
2013-07-11 08:25:00,71.7,67.6,29.86,West,276,1.0,6.0,87,0.00,,-RA,0.00,VWS V14.01,2013-07-11 12:25:00,
2013-07-11 08:30:00,71.7,67.6,29.87,NW,316,2.0,8.0,87,0.00,,-RA,0.00,VWS V14.01,2013-07-11 12:30:00,
2013-07-11 08:35:00,71.8,67.7,29.86,NNW,333,4.0,9.0,87,0.00,,CLR,0.00,VWS V14.01,2013-07-11 12:35:00,
2013-07-11 08:40:00,71.8,67.4,29.87,NW,304,2.0,7.0,86,0.00,,CLR,0.00,VWS V14.01,2013-07-11 12:40:00,
2013-07-11 08:45:00,71.8,67.1,29.87,WNW,293,2.0,8.0,85,0.00,,CLR,0.00,VWS V14.01,2013-07-11 12:45:00,
2013-07-11 08:50:00,71.8,67.1,29.87,West,281,1.0,8.0,85,0.00,,CLR,0.00,VWS V14.01,2013-07-11 12:50:00,
2013-07-11 08:55:00,71.9,67.2,29.87,WNW,297,4.0,4.0,85,0.00,,CLR,0.00,VWS V14.01,2013-07-11 12:55:00,
2013-07-11 09:00:00,72.0,67.2,29.87,WNW,293,3.0,5.0,85,0.00,,CLR,0.00,VWS V14.01,2013-07-11 13:00:00,
2013-07-11 09:05:00,72.3,67.5,29.87,WNW,289,2.0,3.0,85,0.00,,FEW070,0.00,VWS V14.01,2013-07-11 13:05:00,
2013-07-11 09:10:00,72.6,67.5,29.87,NNE,25,7.0,7.0,84,0.00,,FEW070,0.00,VWS V14.01,2013-07-11 13:10:00,
2013-07-11 09:15:00,72.6,67.5,29.87,WNW,302,7.0,9.0,84,0.00,,FEW070,0.00,VWS V14.01,2013-07-11 13:15:00,
2013-07-11 09:20:00,72.6,67.5,29.87,WNW,294,4.0,6.0,84,0.00,,FEW070,0.00,VWS V14.01,2013-07-11 13:20:00,
2013-07-11 09:25:00,72.6,67.2,29.88,NW,326,3.0,5.0,83,0.00,,FEW070,0.00,VWS V14.01,2013-07-11 13:25:00,
2013-07-11 09:31:00,72.9,67.4,29.88,NW,314,8.0,8.0,83,0.00,,FEW070,0.00,VWS V14.01,2013-07-11 13:31:00,
2013-07-11 09:36:00,73.0,67.2,29.88,WSW,238,3.0,11.0,82,0.00,,FEW070,0.00,VWS V14.01,2013-07-11 13:36:00,
2013-07-11 09:41:00,72.9,67.4,29.88,North,6,4.0,4.0,83,0.00,,FEW070,0.00,VWS V14.01,2013-07-11 13:41:00,
2013-07-11 09:46:00,72.9,67.4,29.88,NW,310,6.0,10.0,83,0.00,,FEW070,0.00,VWS V14.01,2013-07-11 13:46:00,
2013-07-11 09:51:00,73.1,67.3,29.88,NW,305,5.0,7.0,82,0.00,,FEW070,0.00,VWS V14.01,2013-07-11 13:51:00,
2013-07-11 09:56:00,73.5,67.3,29.88,NW,307,1.0,8.0,81,0.00,,FEW070,0.00,VWS V14.01,2013-07-11 13:56:00,
2013-07-11 10:01:00,74.0,67.1,29.88,NW,321,2.0,10.0,79,0.00,,FEW070,0.00,VWS V14.01,2013-07-11 14:01:00,
2013-07-11 10:07:00,74.3,67.7,29.88,NW,304,2.0,6.0,80,0.00,,SCT023,0.00,VWS V14.01,2013-07-11 14:07:00,
2013-07-11 10:12:00,74.9,68.3,29.88,WSW,249,1.0,6.0,80,0.00,,SCT023,0.00,VWS V14.01,2013-07-11 14:12:00,
2013-07-11 10:17:00,75.7,68.4,29.88,North,349,4.0,7.0,78,0.00,,SCT023,0.00,VWS V14.01,2013-07-11 14:17:00,
2013-07-11 10:22:00,76.0,68.3,29.88,NW,312,5.0,8.0,77,0.00,,SCT023,0.00,VWS V14.01,2013-07-11 14:22:00,
2013-07-11 10:27:00,76.2,68.1,29.88,NNW,342,4.0,5.0,76,0.00,,SCT023,0.00,VWS V14.01,2013-07-11 14:27:00,
2013-07-11 10:32:00,76.2,68.5,29.88,North,356,0.0,7.0,77,0.00,,SCT023,0.00,VWS V14.01,2013-07-11 14:32:00,
2013-07-11 10:38:00,76.7,68.2,29.88,North,355,3.0,6.0,75,0.00,,BKN023,0.00,VWS V14.01,2013-07-11 14:38:00,
2013-07-11 10:43:00,76.7,68.6,29.88,NNW,334,4.0,7.0,76,0.00,,BKN023,0.00,VWS V14.01,2013-07-11 14:43:00,
2013-07-11 10:48:00,76.7,68.2,29.88,WNW,290,4.0,7.0,75,0.00,,BKN023,0.00,VWS V14.01,2013-07-11 14:48:00,
2013-07-11 10:53:00,77.1,69.3,29.87,NE,54,0.0,4.0,77,0.00,,BKN023,0.00,VWS V14.01,2013-07-11 14:53:00,
2013-07-11 10:58:00,77.4,68.5,29.87,NNE,20,2.0,9.0,74,0.00,,BKN023,0.00,VWS V14.01,2013-07-11 14:58:00,
2013-07-11 11:03:00,76.8,68.3,29.87,WSW,243,1.0,5.0,75,0.00,,SCT023,0.00,VWS V14.01,2013-07-11 15:03:00,
2013-07-11 11:08:00,76.7,68.9,29.87,NW,307,1.0,8.0,77,0.00,,SCT023,0.00,VWS V14.01,2013-07-11 15:08:00,
2013-07-11 11:13:00,77.2,69.1,29.87,NW,316,1.0,3.0,76,0.00,,SCT023,0.00,VWS V14.01,2013-07-11 15:13:00,
2013-07-11 11:19:00,77.6,69.1,29.87,WNW,302,0.0,6.0,75,0.00,,SCT023,0.00,VWS V14.01,2013-07-11 15:19:00,
2013-07-11 11:24:00,78.1,68.8,29.87,NW,309,3.0,3.0,73,0.00,,SCT023,0.00,VWS V14.01,2013-07-11 15:24:00,
2013-07-11 11:29:00,78.2,69.2,29.87,WNW,295,0.0,6.0,74,0.00,,SCT023,0.00,VWS V14.01,2013-07-11 15:29:00,
2013-07-11 11:34:00,79.0,69.2,29.87,WNW,301,2.0,8.0,72,0.00,,CLR,0.00,VWS V14.01,2013-07-11 15:34:00,
2013-07-11 11:39:00,78.6,69.2,29.87,NW,316,1.0,5.0,73,0.00,,CLR,0.00,VWS V14.01,2013-07-11 15:39:00,
2013-07-11 11:44:00,78.8,69.4,29.87,WNW,300,2.0,5.0,73,0.00,,CLR,0.00,VWS V14.01,2013-07-11 15:44:00,
2013-07-11 11:49:00,78.6,68.8,29.87,NW,312,2.0,8.0,72,0.00,,CLR,0.00,VWS V14.01,2013-07-11 15:49:00,
2013-07-11 11:54:00,78.8,69.0,29.87,NW,309,3.0,9.0,72,0.00,,CLR,0.00,VWS V14.01,2013-07-11 15:54:00,
2013-07-11 11:59:00,79.2,69.4,29.87,WNW,294,6.0,6.0,72,0.00,,CLR,0.00,VWS V14.01,2013-07-11 15:59:00,
2013-07-11 12:04:00,79.4,69.2,29.87,WNW,285,6.0,7.0,71,0.00,,CLR,0.00,VWS V14.01,2013-07-11 16:04:00,
2013-07-11 12:10:00,79.6,69.4,29.87,NW,311,5.0,7.0,71,0.00,,CLR,0.00,VWS V14.01,2013-07-11 16:10:00,
2013-07-11 12:15:00,80.7,70.0,29.87,NW,321,2.0,6.0,70,0.00,,CLR,0.00,VWS V14.01,2013-07-11 16:15:00,
2013-07-11 12:20:00,80.9,69.8,29.87,East,82,1.0,7.0,69,0.00,,CLR,0.00,VWS V14.01,2013-07-11 16:20:00,
2013-07-11 12:25:00,80.6,69.1,29.87,NNW,337,4.0,9.0,68,0.00,,CLR,0.00,VWS V14.01,2013-07-11 16:25:00,
2013-07-11 12:30:00,80.8,69.7,29.87,WNW,301,3.0,4.0,69,0.00,,CLR,0.00,VWS V14.01,2013-07-11 16:30:00,
2013-07-11 12:35:00,80.9,69.4,29.87,WSW,255,1.0,2.0,68,0.00,,CLR,0.00,VWS V14.01,2013-07-11 16:35:00,
2013-07-11 12:40:00,80.7,69.2,29.87,NW,304,5.0,6.0,68,0.00,,CLR,0.00,VWS V14.01,2013-07-11 16:40:00,
2013-07-11 12:45:00,80.8,69.7,29.87,WNW,286,1.0,3.0,69,0.00,,CLR,0.00,VWS V14.01,2013-07-11 16:45:00,
2013-07-11 12:50:00,82.2,71.0,29.87,NNW,330,0.0,0.0,69,0.00,,CLR,0.00,VWS V14.01,2013-07-11 16:50:00,
2013-07-11 12:56:00,83.4,70.4,29.87,WNW,290,1.0,2.0,65,0.00,,CLR,0.00,VWS V14.01,2013-07-11 16:56:00,
2013-07-11 13:01:00,82.8,69.8,29.87,WNW,293,4.0,5.0,65,0.00,,CLR,0.00,VWS V14.01,2013-07-11 17:01:00,
2013-07-11 13:06:00,82.4,68.6,29.87,WNW,290,4.0,9.0,63,0.00,,SCT034,0.00,VWS V14.01,2013-07-11 17:06:00,
2013-07-11 13:12:00,82.9,70.8,29.86,ENE,68,4.0,4.0,67,0.00,,SCT034,0.00,VWS V14.01,2013-07-11 17:12:00,
2013-07-11 13:17:00,83.2,68.8,29.86,NNE,15,1.0,7.0,62,0.00,,SCT034,0.00,VWS V14.01,2013-07-11 17:17:00,
2013-07-11 13:22:00,83.2,69.3,29.86,WNW,293,3.0,8.0,63,0.00,,SCT034,0.00,VWS V14.01,2013-07-11 17:22:00,
2013-07-11 13:27:00,83.0,68.7,29.86,NW,307,3.0,8.0,62,0.00,,SCT034,0.00,VWS V14.01,2013-07-11 17:27:00,
2013-07-11 13:32:00,83.6,68.7,29.86,NW,310,5.0,5.0,61,0.00,,SCT034,0.00,VWS V14.01,2013-07-11 17:32:00,
2013-07-11 13:38:00,83.0,69.1,29.86,North,352,0.0,1.0,63,0.00,,SCT034,0.00,VWS V14.01,2013-07-11 17:38:00,
2013-07-11 13:43:00,83.6,69.7,29.86,East,97,0.0,5.0,63,0.00,,SCT034,0.00,VWS V14.01,2013-07-11 17:43:00,
2013-07-11 13:48:00,83.4,69.5,29.86,NNW,335,1.0,5.0,63,0.00,,SCT034,0.00,VWS V14.01,2013-07-11 17:48:00,
2013-07-11 13:53:00,83.6,69.2,29.86,WNW,284,0.0,2.0,62,0.00,,SCT034,0.00,VWS V14.01,2013-07-11 17:53:00,
2013-07-11 13:58:00,83.0,68.7,29.86,WNW,293,3.0,5.0,62,0.00,,SCT034,0.00,VWS V14.01,2013-07-11 17:58:00,
2013-07-11 14:03:00,82.7,68.8,29.85,NNW,348,0.0,2.0,63,0.00,,OVC047,0.00,VWS V14.01,2013-07-11 18:03:00,
2013-07-11 14:09:00,82.8,68.9,29.86,NW,311,3.0,7.0,63,0.00,,OVC047,0.00,VWS V14.01,2013-07-11 18:09:00,
2013-07-11 14:14:00,82.6,69.7,29.85,West,268,2.0,5.0,65,0.00,,OVC047,0.00,VWS V14.01,2013-07-11 18:14:00,
2013-07-11 14:19:00,82.0,69.1,29.85,West,262,2.0,7.0,65,0.00,,OVC047,0.00,VWS V14.01,2013-07-11 18:19:00,
2013-07-11 14:24:00,82.8,68.9,29.85,WNW,293,3.0,5.0,63,0.00,,OVC047,0.00,VWS V14.01,2013-07-11 18:24:00,
2013-07-11 14:30:00,83.4,68.6,29.85,NW,316,2.0,4.0,61,0.00,,OVC047,0.00,VWS V14.01,2013-07-11 18:30:00,
2013-07-11 14:35:00,83.4,68.1,29.85,NNW,328,0.0,3.0,60,0.00,,OVC047,0.00,VWS V14.01,2013-07-11 18:35:00,
2013-07-11 14:40:00,84.1,68.2,29.85,NW,316,6.0,6.0,59,0.00,,OVC047,0.00,VWS V14.01,2013-07-11 18:40:00,
2013-07-11 14:45:00,84.7,68.3,29.85,NW,307,3.0,6.0,58,0.00,,OVC047,0.00,VWS V14.01,2013-07-11 18:45:00,
2013-07-11 14:50:00,83.8,68.4,29.85,WNW,297,5.0,6.0,60,0.00,,OVC047,0.00,VWS V14.01,2013-07-11 18:50:00,
2013-07-11 14:55:00,82.8,67.5,29.85,WNW,289,3.0,8.0,60,0.00,,OVC047,0.00,VWS V14.01,2013-07-11 18:55:00,
2013-07-11 15:00:00,82.6,67.8,29.85,WNW,291,2.0,4.0,61,0.00,,OVC047,0.00,VWS V14.01,2013-07-11 19:00:00,
2013-07-11 15:05:00,82.3,67.0,29.85,NW,308,3.0,5.0,60,0.00,,FEW041,0.00,VWS V14.01,2013-07-11 19:05:00,
2013-07-11 15:10:00,82.0,67.7,29.85,WNW,283,2.0,5.0,62,0.00,,FEW041,0.00,VWS V14.01,2013-07-11 19:10:00,
2013-07-11 15:15:00,82.7,68.4,29.84,NNW,328,1.0,4.0,62,0.00,,FEW041,0.00,VWS V14.01,2013-07-11 19:15:00,
2013-07-11 15:20:00,82.8,68.5,29.84,West,280,0.0,4.0,62,0.00,,FEW041,0.00,VWS V14.01,2013-07-11 19:20:00,
2013-07-11 15:25:00,83.0,68.2,29.84,NE,41,0.0,2.0,61,0.00,,FEW041,0.00,VWS V14.01,2013-07-11 19:25:00,
2013-07-11 15:30:00,83.3,68.5,29.84,East,88,0.0,1.0,61,0.00,,FEW041,0.00,VWS V14.01,2013-07-11 19:30:00,
2013-07-11 15:35:00,83.2,68.4,29.84,WNW,293,0.0,3.0,61,0.00,,FEW041,0.00,VWS V14.01,2013-07-11 19:35:00,
2013-07-11 15:40:00,83.3,68.0,29.84,WNW,293,2.0,3.0,60,0.00,,FEW041,0.00,VWS V14.01,2013-07-11 19:40:00,
2013-07-11 15:45:00,83.2,68.4,29.84,ESE,107,0.0,4.0,61,0.00,,FEW041,0.00,VWS V14.01,2013-07-11 19:45:00,
2013-07-11 15:50:00,83.0,67.2,29.84,WNW,294,0.0,1.0,59,0.00,,FEW041,0.00,VWS V14.01,2013-07-11 19:50:00,
2013-07-11 15:55:00,82.5,67.2,29.84,NW,316,2.0,2.0,60,0.00,,FEW041,0.00,VWS V14.01,2013-07-11 19:55:00,
2013-07-11 16:01:00,82.0,68.2,29.84,West,281,0.0,0.0,63,0.00,,FEW041,0.00,VWS V14.01,2013-07-11 20:01:00,
2013-07-11 16:06:00,81.6,67.8,29.84,WNW,288,2.0,2.0,63,0.00,,OVC080,0.00,VWS V14.01,2013-07-11 20:06:00,
2013-07-11 16:11:00,81.3,67.1,29.84,NW,311,1.0,5.0,62,0.00,,OVC080,0.00,VWS V14.01,2013-07-11 20:11:00,
2013-07-11 16:16:00,81.4,67.6,29.84,NW,325,2.0,4.0,63,0.00,,OVC080,0.00,VWS V14.01,2013-07-11 20:16:00,
2013-07-11 16:21:00,81.4,67.6,29.83,WNW,290,0.0,2.0,63,0.00,,OVC080,0.00,VWS V14.01,2013-07-11 20:21:00,
2013-07-11 16:26:00,81.9,68.1,29.84,NW,312,2.0,4.0,63,0.00,,OVC080,0.00,VWS V14.01,2013-07-11 20:26:00,
2013-07-11 16:33:00,82.3,65.6,29.84,WSW,246,0.0,6.0,57,0.00,,OVC080,0.00,VWS V14.01,2013-07-11 20:33:00,
2013-07-11 16:38:00,83.0,67.2,29.84,WNW,288,0.0,5.0,59,0.00,,OVC080,0.00,VWS V14.01,2013-07-11 20:38:00,
2013-07-11 16:44:00,83.6,66.8,29.84,NE,47,0.0,2.0,57,0.00,,OVC080,0.00,VWS V14.01,2013-07-11 20:44:00,
2013-07-11 16:49:00,84.1,67.7,29.84,East,79,1.0,3.0,58,0.00,,OVC080,0.00,VWS V14.01,2013-07-11 20:49:00,
2013-07-11 16:54:00,84.7,67.8,29.84,WNW,283,0.0,3.0,57,0.00,,OVC080,0.00,VWS V14.01,2013-07-11 20:54:00,
2013-07-11 16:59:00,84.7,67.3,29.84,WNW,291,2.0,3.0,56,0.00,,OVC080,0.00,VWS V14.01,2013-07-11 20:59:00,
2013-07-11 17:04:00,84.3,66.4,29.83,NNW,336,5.0,6.0,55,0.00,,SCT080,0.00,VWS V14.01,2013-07-11 21:04:00,
2013-07-11 17:09:00,84.1,66.7,29.84,WNW,283,2.0,4.0,56,0.00,,SCT080,0.00,VWS V14.01,2013-07-11 21:09:00,
2013-07-11 17:14:00,83.8,66.4,29.84,WNW,300,0.0,3.0,56,0.00,,SCT080,0.00,VWS V14.01,2013-07-11 21:14:00,
2013-07-11 17:20:00,83.8,67.0,29.84,WNW,301,3.0,5.0,57,0.00,,SCT080,0.00,VWS V14.01,2013-07-11 21:20:00,
2013-07-11 17:25:00,82.8,66.5,29.84,NNW,328,1.0,7.0,58,0.00,,SCT080,0.00,VWS V14.01,2013-07-11 21:25:00,
2013-07-11 17:30:00,82.2,66.5,29.84,WNW,291,1.0,5.0,59,0.00,,SCT080,0.00,VWS V14.01,2013-07-11 21:30:00,
2013-07-11 17:35:00,81.9,66.7,29.84,WNW,293,2.0,4.0,60,0.00,,SCT080,0.00,VWS V14.01,2013-07-11 21:35:00,
2013-07-11 17:40:00,81.9,67.6,29.84,NW,323,2.0,2.0,62,0.00,,SCT080,0.00,VWS V14.01,2013-07-11 21:40:00,
2013-07-11 17:45:00,81.9,66.7,29.84,NW,304,1.0,2.0,60,0.00,,SCT080,0.00,VWS V14.01,2013-07-11 21:45:00,
2013-07-11 17:50:00,81.8,67.1,29.84,WNW,289,0.0,1.0,61,0.00,,SCT080,0.00,VWS V14.01,2013-07-11 21:50:00,
2013-07-11 17:55:00,81.7,66.0,29.84,NW,310,1.0,2.0,59,0.00,,SCT080,0.00,VWS V14.01,2013-07-11 21:55:00,
2013-07-11 18:00:00,81.3,65.6,29.85,NW,314,0.0,4.0,59,0.00,,SCT080,0.00,VWS V14.01,2013-07-11 22:00:00,
2013-07-11 18:06:00,81.0,65.8,29.85,NW,319,0.0,1.0,60,0.00,,SCT080,0.00,VWS V14.01,2013-07-11 22:06:00,
2013-07-11 18:11:00,81.0,66.3,29.85,NW,314,2.0,3.0,61,0.00,,SCT080,0.00,VWS V14.01,2013-07-11 22:11:00,
2013-07-11 18:16:00,80.9,66.2,29.85,NW,321,0.0,0.0,61,0.00,,SCT080,0.00,VWS V14.01,2013-07-11 22:16:00,
2013-07-11 18:21:00,80.9,66.2,29.85,NW,319,1.0,1.0,61,0.00,,SCT080,0.00,VWS V14.01,2013-07-11 22:21:00,
2013-07-11 18:26:00,80.7,66.0,29.85,WNW,295,0.0,3.0,61,0.00,,SCT080,0.00,VWS V14.01,2013-07-11 22:26:00,
2013-07-11 18:31:00,80.5,65.8,29.85,NE,34,0.0,1.0,61,0.00,,SCT080,0.00,VWS V14.01,2013-07-11 22:31:00,
2013-07-11 18:37:00,80.4,65.7,29.85,NW,319,0.0,2.0,61,0.00,,SCT080,0.00,VWS V14.01,2013-07-11 22:37:00,
2013-07-11 18:42:00,80.4,66.2,29.85,NW,310,3.0,4.0,62,0.00,,SCT080,0.00,VWS V14.01,2013-07-11 22:42:00,
2013-07-11 18:47:00,80.1,65.4,29.86,NW,326,1.0,4.0,61,0.00,,SCT080,0.00,VWS V14.01,2013-07-11 22:47:00,
2013-07-11 18:52:00,79.9,66.2,29.86,WNW,297,0.0,1.0,63,0.00,,SCT080,0.00,VWS V14.01,2013-07-11 22:52:00,
2013-07-11 18:57:00,79.9,66.2,29.86,NW,314,0.0,1.0,63,0.00,,SCT080,0.00,VWS V14.01,2013-07-11 22:57:00,
2013-07-11 19:03:00,79.8,67.0,29.86,West,276,0.0,1.0,65,0.00,,CLR,0.00,VWS V14.01,2013-07-11 23:03:00,
2013-07-11 19:08:00,79.6,66.4,29.86,West,276,0.0,0.0,64,0.00,,CLR,0.00,VWS V14.01,2013-07-11 23:08:00,
2013-07-11 19:13:00,79.6,65.9,29.86,North,359,0.0,1.0,63,0.00,,CLR,0.00,VWS V14.01,2013-07-11 23:13:00,
2013-07-11 19:18:00,79.4,66.2,29.87,NW,304,0.0,2.0,64,0.00,,CLR,0.00,VWS V14.01,2013-07-11 23:18:00,
2013-07-11 19:23:00,79.2,66.4,29.87,NW,305,0.0,0.0,65,0.00,,CLR,0.00,VWS V14.01,2013-07-11 23:23:00,
2013-07-11 19:28:00,79.0,66.2,29.87,WNW,303,0.0,0.0,65,0.00,,CLR,0.00,VWS V14.01,2013-07-11 23:28:00,
2013-07-11 19:34:00,78.8,66.1,29.87,NW,304,0.0,0.0,65,0.00,,CLR,0.00,VWS V14.01,2013-07-11 23:34:00,
2013-07-11 19:39:00,78.5,66.2,29.87,WNW,299,0.0,1.0,66,0.00,,CLR,0.00,VWS V14.01,2013-07-11 23:39:00,
2013-07-11 19:44:00,78.3,66.4,29.87,WNW,300,0.0,0.0,67,0.00,,CLR,0.00,VWS V14.01,2013-07-11 23:44:00,
2013-07-11 19:50:00,78.1,67.1,29.87,WNW,300,0.0,0.0,69,0.00,,CLR,0.00,VWS V14.01,2013-07-11 23:50:00,
2013-07-11 19:55:00,77.8,66.4,29.87,WNW,299,0.0,0.0,68,0.00,,CLR,0.00,VWS V14.01,2013-07-11 23:55:00,
2013-07-11 20:00:00,77.5,66.5,29.87,WNW,288,0.0,0.0,69,0.00,,CLR,0.00,VWS V14.01,2013-07-12 00:00:00,
2013-07-11 20:05:00,77.2,66.7,29.87,WNW,300,0.0,1.0,70,0.00,,FEW060,0.00,VWS V14.01,2013-07-12 00:05:00,
2013-07-11 20:10:00,76.9,66.4,29.87,WNW,298,0.0,0.0,70,0.00,,FEW060,0.00,VWS V14.01,2013-07-12 00:10:00,
2013-07-11 20:15:00,76.9,66.8,29.88,WNW,298,0.0,0.0,71,0.00,,FEW060,0.00,VWS V14.01,2013-07-12 00:15:00,
2013-07-11 20:20:00,77.0,66.5,29.88,WNW,293,0.0,0.0,70,0.00,,FEW060,0.00,VWS V14.01,2013-07-12 00:20:00,
2013-07-11 20:25:00,77.0,68.1,29.88,WNW,294,0.0,0.0,74,0.00,,FEW060,0.00,VWS V14.01,2013-07-12 00:25:00,
2013-07-11 20:30:00,76.4,69.0,29.88,WNW,293,0.0,0.0,78,0.00,,FEW060,0.00,VWS V14.01,2013-07-12 00:30:00,
2013-07-11 20:35:00,75.1,67.8,29.88,WNW,293,0.0,0.0,78,0.00,,FEW060,0.00,VWS V14.01,2013-07-12 00:35:00,
2013-07-11 20:41:00,73.9,67.3,29.88,WNW,293,0.0,0.0,80,0.00,,FEW060,0.00,VWS V14.01,2013-07-12 00:41:00,
2013-07-11 20:46:00,73.3,67.1,29.88,WNW,293,0.0,0.0,81,0.00,,FEW060,0.00,VWS V14.01,2013-07-12 00:46:00,
2013-07-11 20:52:00,72.9,67.1,29.88,WNW,294,0.0,0.0,82,0.00,,FEW060,0.00,VWS V14.01,2013-07-12 00:52:00,
2013-07-11 20:57:00,72.7,66.9,29.88,WNW,294,0.0,0.0,82,0.00,,FEW060,0.00,VWS V14.01,2013-07-12 00:57:00,
2013-07-11 21:02:00,72.6,66.4,29.88,WNW,294,0.0,0.0,81,0.00,,FEW060,0.00,VWS V14.01,2013-07-12 01:02:00,
2013-07-11 21:08:00,72.7,66.2,29.88,WNW,294,0.0,0.0,80,0.00,,FEW060,0.00,VWS V14.01,2013-07-12 01:08:00,
2013-07-11 21:13:00,72.7,66.5,29.88,East,101,0.0,1.0,81,0.00,,FEW060,0.00,VWS V14.01,2013-07-12 01:13:00,
2013-07-11 21:18:00,72.3,66.2,29.88,East,96,0.0,1.0,81,0.00,,FEW060,0.00,VWS V14.01,2013-07-12 01:18:00,
2013-07-11 21:23:00,72.4,66.2,29.88,East,94,0.0,0.0,81,0.00,,FEW060,0.00,VWS V14.01,2013-07-12 01:23:00,
2013-07-11 21:28:00,72.3,65.8,29.88,East,93,0.0,0.0,80,0.00,,FEW060,0.00,VWS V14.01,2013-07-12 01:28:00,
2013-07-11 21:33:00,72.5,65.6,29.88,East,94,0.0,0.0,79,0.00,,FEW060,0.00,VWS V14.01,2013-07-12 01:33:00,
2013-07-11 21:38:00,72.5,65.6,29.89,East,93,0.0,0.0,79,0.00,,FEW060,0.00,VWS V14.01,2013-07-12 01:38:00,
2013-07-11 21:44:00,72.3,65.8,29.89,East,93,0.0,0.0,80,0.00,,FEW060,0.00,VWS V14.01,2013-07-12 01:44:00,
2013-07-11 21:49:00,72.4,65.2,29.89,NW,326,0.0,0.0,78,0.00,,FEW060,0.00,VWS V14.01,2013-07-12 01:49:00,
2013-07-11 21:54:00,72.7,65.1,29.89,ENE,69,0.0,1.0,77,0.00,,FEW060,0.00,VWS V14.01,2013-07-12 01:54:00,
2013-07-11 21:59:00,72.6,65.3,29.89,East,101,0.0,1.0,78,0.00,,FEW060,0.00,VWS V14.01,2013-07-12 01:59:00,
2013-07-11 22:04:00,72.3,65.4,29.89,East,89,0.0,2.0,79,0.00,,CLR,0.00,VWS V14.01,2013-07-12 02:04:00,
2013-07-11 22:10:00,72.3,65.1,29.89,ENE,75,1.0,3.0,78,0.00,,CLR,0.00,VWS V14.01,2013-07-12 02:10:00,
2013-07-11 22:15:00,72.3,64.7,29.89,ENE,68,2.0,2.0,77,0.00,,CLR,0.00,VWS V14.01,2013-07-12 02:15:00,
2013-07-11 22:20:00,72.3,64.7,29.89,ENE,76,2.0,3.0,77,0.00,,CLR,0.00,VWS V14.01,2013-07-12 02:20:00,
2013-07-11 22:25:00,72.2,64.6,29.90,East,94,0.0,2.0,77,0.00,,CLR,0.00,VWS V14.01,2013-07-12 02:25:00,
2013-07-11 22:30:00,72.0,64.4,29.89,ESE,105,0.0,1.0,77,0.00,,CLR,0.00,VWS V14.01,2013-07-12 02:30:00,
2013-07-11 22:35:00,72.0,64.4,29.89,East,91,1.0,1.0,77,0.00,,CLR,0.00,VWS V14.01,2013-07-12 02:35:00,
2013-07-11 22:40:00,71.9,64.3,29.89,East,88,0.0,0.0,77,0.00,,CLR,0.00,VWS V14.01,2013-07-12 02:40:00,
2013-07-11 22:45:00,71.9,63.9,29.89,ESE,102,0.0,3.0,76,0.00,,CLR,0.00,VWS V14.01,2013-07-12 02:45:00,
2013-07-11 22:50:00,71.8,63.8,29.89,ENE,65,0.0,1.0,76,0.00,,CLR,0.00,VWS V14.01,2013-07-12 02:50:00,
2013-07-11 22:55:00,71.7,63.7,29.89,ENE,75,0.0,0.0,76,0.00,,CLR,0.00,VWS V14.01,2013-07-12 02:55:00,
2013-07-11 23:00:00,71.6,63.6,29.89,NW,322,0.0,0.0,76,0.00,,CLR,0.00,VWS V14.01,2013-07-12 03:00:00,
2013-07-11 23:06:00,71.5,62.8,29.89,East,89,0.0,1.0,74,0.00,,CLR,0.00,VWS V14.01,2013-07-12 03:06:00,
2013-07-11 23:11:00,71.7,62.6,29.89,East,82,0.0,1.0,73,0.00,,CLR,0.00,VWS V14.01,2013-07-12 03:11:00,
2013-07-11 23:16:00,71.7,62.2,29.89,NE,44,0.0,3.0,72,0.00,,CLR,0.00,VWS V14.01,2013-07-12 03:16:00,
2013-07-11 23:21:00,72.0,62.1,29.89,ENE,75,1.0,2.0,71,0.00,,CLR,0.00,VWS V14.01,2013-07-12 03:21:00,
2013-07-11 23:27:00,72.0,62.1,29.89,NNE,20,1.0,2.0,71,0.00,,CLR,0.00,VWS V14.01,2013-07-12 03:27:00,
2013-07-11 23:32:00,71.9,62.0,29.89,ESE,107,0.0,1.0,71,0.00,,CLR,0.00,VWS V14.01,2013-07-12 03:32:00,
2013-07-11 23:37:00,71.8,62.3,29.90,East,101,0.0,0.0,72,0.00,,CLR,0.00,VWS V14.01,2013-07-12 03:37:00,
2013-07-11 23:43:00,71.4,62.3,29.90,East,101,0.0,0.0,73,0.00,,CLR,0.00,VWS V14.01,2013-07-12 03:43:00,
2013-07-11 23:48:00,71.2,62.5,29.90,East,101,0.0,0.0,74,0.00,,CLR,0.00,VWS V14.01,2013-07-12 03:48:00,
2013-07-11 23:53:00,70.8,62.5,29.90,East,100,0.0,0.0,75,0.00,,CLR,0.00,VWS V14.01,2013-07-12 03:53:00,
2013-07-11 23:58:00,70.4,62.8,29.90,East,101,0.0,0.0,77,0.00,,CLR,0.00,VWS V14.01,2013-07-12 03:58:00,